This is the latest recevied weather packets stored in our database for station/object 4S6DRJ-13. If no packets are shown the sender has not sent any weather packets the latest 10 day(s).
| Time | Temp. | Humidity | Pressure | Rain* | Wind** | Luminosity | Snow |
|---|---|---|---|---|---|---|---|
| 1788020001 | 28.33° C | 82% | 1011.4 hPa | 0 mm | 0.45 m/s, 258° | 0 W/m² | - |
| 1788019939 | 28.33° C | 82% | 1011.1 hPa | 0 mm | 0.89 m/s, 213° | 0 W/m² | - |
| 1788019879 | 28.33° C | 82% | 1011.2 hPa | 0 mm | 0.89 m/s, 230° | 0 W/m² | - |
| 1788019818 | 28.33° C | 82% | 1011.2 hPa | 0 mm | 0.89 m/s, 241° | 0 W/m² | - |
| 1788019757 | 28.33° C | 82% | 1011.2 hPa | 0 mm | 1.34 m/s, 190° | 0 W/m² | - |
| 1788019696 | 28.33° C | 82% | 1011.2 hPa | 0 mm | 0.45 m/s, 191° | 0 W/m² | - |
| 1788019634 | 28.33° C | 82% | 1011.2 hPa | 0 mm | 0 m/s | 0 W/m² | - |
| 1788019573 | 28.33° C | 82% | 1011.3 hPa | 0 mm | 0.45 m/s, 243° | 0 W/m² | - |
| 1788019512 | 28.33° C | 82% | 1011.3 hPa | 0 mm | 0.45 m/s, 235° | 0 W/m² | - |
| 1788019451 | 28.33° C | 82% | 1011.2 hPa | 0 mm | 0.45 m/s, 230° | 0 W/m² | - |
| 1788019391 | 28.33° C | 82% | 1011 hPa | 0 mm | 0.89 m/s, 305° | 0 W/m² | - |
| 1788019329 | 28.33° C | 82% | 1011.3 hPa | 0 mm | 0.89 m/s, 272° | 0 W/m² | - |
| 1788019269 | 28.33° C | 82% | 1011.1 hPa | 0 mm | 0.45 m/s, 245° | 0 W/m² | - |
| 1788019208 | 28.33° C | 82% | 1010.9 hPa | 0 mm | 1.79 m/s, 289° | 0 W/m² | - |
| 1788019147 | 28.33° C | 82% | 1011.1 hPa | 0 mm | 0.45 m/s, 291° | 0 W/m² | - |
| 1788019086 | 28.33° C | 82% | 1011 hPa | 0 mm | 1.79 m/s, 236° | 0 W/m² | - |
| 1788019025 | 28.33° C | 82% | 1011 hPa | 0 mm | 1.34 m/s, 203° | 0 W/m² | - |
| 1788018964 | 28.33° C | 82% | 1011.1 hPa | 0 mm | 0.89 m/s, 184° | 0 W/m² | - |
| 1788018903 | 28.33° C | 82% | 1011.1 hPa | 0 mm | 0.89 m/s, 216° | 0 W/m² | - |
| 1788018842 | 28.33° C | 82% | 1011.1 hPa | 0 mm | 1.34 m/s, 269° | 0 W/m² | - |
| 1788018781 | 28.33° C | 82% | 1010.9 hPa | 0 mm | 0.89 m/s, 142° | 0 W/m² | - |
| 1788018720 | 28.33° C | 82% | 1010.9 hPa | 0 mm | 1.34 m/s, 253° | 0 W/m² | - |
| 1788018659 | 28.33° C | 82% | 1011 hPa | 0 mm | 0.45 m/s, 224° | 0 W/m² | - |
| 1788018598 | 28.33° C | 82% | 1011.1 hPa | 0 mm | 0.89 m/s, 220° | 0 W/m² | - |
| 1788018537 | 28.33° C | 82% | 1010.9 hPa | 0 mm | 0 m/s | 0 W/m² | - |
* Rain latest hour (hover to see other rain measurements)
** Current wind speed in m/s (hover to see current wind gust speed)